History for Norfolk, VA on Monday, March 2, 2015

Jump to data by:

Latest visited Airport Codes: KORF

Data type:
 

« Previous Day | Next Day »

 
Daily Summary
Actual Average Record
Temperature
Mean Temperature 36 °F 46 °F  
Max Temperature 37 °F 54 °F 81 °F (1972)
Min Temperature 34 °F 37 °F 20 °F (1980)
Degree Days
Heating Degree Days 30 20  
Month to date heating degree days 40  
Since 1 July heating degree days 2609  
Cooling Degree Days 0 0  
Month to date cooling degree days 0  
Year to date cooling degree days 1  
Moisture
Dew Point 33 °F    
Average Humidity 92    
Maximum Humidity 100    
Minimum Humidity 89    
Precipitation
Precipitation 0.01 in 0.12 in 3.78 in (1994)
Month to date precipitation 0.24  
Year to date precipitation 6.76  
Snow
Snow - 0.00 in 11.00 in (1927)
Month to date snowfall 0.0  
Since 1 July snowfall 5.6  
Snow Depth -    
Sea Level Pressure
Sea Level Pressure 30.15 in    
Wind
Wind Speed 8 mph ()    
Max Wind Speed 13 mph    
Max Gust Speed 17 mph    
Visibility 5.1 miles    
Events Rain   
Key: T is trace of precipitation, MM is missing value
Source: Averaged Metar Reports
Time (EST) Temp. Dew Point Humidity Sea Level Pressure Visibility Wind Direction Wind Speed Gust Speed Precip. Events Conditions
12:51 AM 34.0 °F 30.9 °F 89% 30.22 in 9.0 miles SW 8.1 mph - N/A   Overcast
1:40 AM 34.0 °F 32.0 °F 92% 30.20 in 9.0 miles SW 11.5 mph - N/A   Scattered Clouds
1:51 AM 34.0 °F 32.0 °F 92% 30.19 in 9.0 miles SW 10.4 mph - N/A   Partly Cloudy
2:51 AM 34.0 °F 32.0 °F 92% 30.14 in 10.0 miles SSW 12.7 mph - N/A   Clear
3:27 AM 35.1 °F 32.0 °F 89% 30.14 in 10.0 miles WSW 9.2 mph - N/A   Scattered Clouds
3:36 AM 35.1 °F 33.1 °F 92% 30.14 in 9.0 miles WSW 6.9 mph - N/A   Mostly Cloudy
3:51 AM 35.1 °F 32.0 °F 89% 30.14 in 7.0 miles WSW 9.2 mph - N/A   Overcast
4:15 AM 35.1 °F 32.0 °F 89% 30.12 in 2.5 miles SW 8.1 mph - N/A   Overcast
4:31 AM 35.1 °F 33.1 °F 92% 30.12 in 1.2 miles SW 8.1 mph - N/A   Overcast
4:47 AM 35.6 °F 33.8 °F 93% 30.12 in 0.8 miles WSW 10.4 mph - N/A   Mist
4:51 AM 35.1 °F 33.1 °F 92% 30.12 in 0.8 miles SW 9.2 mph - N/A   Mist
5:06 AM 35.1 °F 33.1 °F 92% 30.12 in 1.0 miles SW 9.2 mph - N/A   Mist
5:51 AM 35.1 °F 33.1 °F 92% 30.13 in 1.5 miles SW 10.4 mph - N/A   Overcast
6:18 AM 35.1 °F 33.1 °F 92% 30.14 in 2.5 miles WSW 5.8 mph - N/A   Overcast
6:34 AM 35.1 °F 33.1 °F 92% 30.14 in 3.0 miles WSW 9.2 mph - N/A   Overcast
6:51 AM 35.1 °F 33.1 °F 92% 30.12 in 4.0 miles SW 11.5 mph - N/A   Overcast
6:58 AM 35.1 °F 33.1 °F 92% 30.12 in 4.0 miles SW 12.7 mph - N/A   Overcast
7:51 AM 36.0 °F 34.0 °F 93% 30.13 in 5.0 miles SW 11.5 mph - 0.00 in   Overcast
8:08 AM 36.0 °F 34.0 °F 93% 30.14 in 4.0 miles SW 9.2 mph - 0.00 in Rain Light Rain
8:51 AM 37.0 °F 35.1 °F 93% 30.16 in 5.0 miles WSW 9.2 mph - 0.01 in   Overcast
9:03 AM 37.9 °F 37.0 °F 97% 30.17 in 5.0 miles WSW 5.8 mph - N/A   Overcast
9:19 AM 37.9 °F 37.9 °F 100% 30.18 in 5.0 miles West 5.8 mph - N/A   Overcast
9:51 AM 37.9 °F 35.1 °F 89% 30.22 in 9.0 miles NNW 11.5 mph 17.3 mph N/A   Overcast

Powered by the Weather Underground, Inc.